EHI
20 19 21 23 25 25 25 23 21 18 15 13 12 9 7 4 3 4 5 5 4 4 2 1 0 0 0 1 2 3 3 3 2 2 2 1 0 0 0 0 0 0 0
18 18 18 20 23 24 23 20 18 16 15 14 11 9 8 6 5 6 6 5 4 4 4 2 2 2 1 2 3 3 3 3 3 3 2 1 0 0 0 0 0 0 0
16 17 17 17 19 21 19 16 14 13 14 13 12 11 10 8 7 6 6 5 4 4 5 6 5 5 5 4 4 4 4 4 4 3 2 1 0 0 0 0 0 0 0
14 16 17 16 16 16 14 12 10 10 12 13 13 14 12 10 8 7 6 6 4 5 7 9 8 7 6 5 5 5 5 5 5 4 3 2 0 0 0 0 0 0 0
14 16 16 14 14 13 10 8 8 8 9 11 13 13 12 10 8 7 6 5 5 6 9 11 10 7 5 4 4 4 4 5 5 4 3 2 1 0 0 0 0 0 0
14 15 14 13 11 8 5 5 7 7 7 9 11 12 11 10 8 8 6 5 6 7 10 12 10 7 6 5 5 4 5 5 4 4 3 2 1 0 0 0 0 0 0
14 14 12 11 8 5 2 4 6 7 6 7 8 10 10 9 9 8 8 7 7 8 9 10 9 8 7 7 7 7 6 6 5 4 3 3 3 2 0 0 0 0 0
13 13 11 8 5 3 2 3 6 6 6 5 6 8 9 10 9 8 8 8 8 8 7 7 7 7 7 8 8 7 7 6 5 4 4 4 5 5 3 1 1 0 0
10 10 8 5 4 3 2 2 3 4 4 4 4 6 8 9 9 7 7 8 8 8 7 6 6 6 7 7 7 7 6 6 4 3 4 5 6 7 6 3 2 1 0
7 5 3 2 3 3 2 1 1 1 2 3 3 5 8 9 9 7 5 5 7 8 7 7 6 6 6 6 6 6 6 6 5 4 4 4 5 6 6 4 3 2 1
4 3 2 2 3 3 2 2 1 1 1 2 3 6 8 9 9 7 5 4 5 7 8 7 7 6 6 6 6 6 6 6 6 5 4 3 3 4 5 4 3 3 3
4 4 3 4 5 4 3 3 1 1 0 1 3 6 7 7 6 6 5 4 4 5 8 8 7 6 6 6 6 7 8 7 6 5 4 3 3 3 4 3 3 3 3
5 5 4 4 5 4 4 3 1 0 0 1 3 4 4 4 4 4 4 3 3 4 6 8 7 5 5 5 6 7 8 7 6 5 4 4 3 3 3 3 3 3 3
5 6 5 4 3 4 5 3 1 0 1 1 3 3 3 3 2 2 3 3 3 2 3 5 6 6 5 5 5 5 6 6 5 5 5 4 4 3 3 3 3 3 3
5 6 5 4 4 4 5 4 1 1 2 3 3 3 3 2 1 1 2 3 3 3 2 2 3 5 5 5 4 4 4 4 4 4 4 4 3 3 3 3 3 3 3
4 5 6 6 5 5 4 3 2 2 3 4 4 3 1 1 1 2 3 3 4 4 2 0 1 2 3 4 3 3 4 4 4 3 3 3 3 3 2 2 2 2 2
5 5 6 7 5 3 1 1 2 3 4 4 3 2 1 1 2 3 3 3 4 5 3 1 0 1 2 2 1 2 4 5 5 4 3 3 3 3 2 2 2 1 1
5 5 5 5 3 1 0 0 2 3 3 3 2 1 0 1 2 2 2 3 4 4 3 1 1 1 1 1 0 1 2 4 4 4 3 3 3 3 3 3 2 2 1
3 3 3 2 1 0 0 1 2 3 3 3 1 0 0 0 1 1 1 1 1 2 2 1 1 1 2 1 0 1 2 3 4 4 3 3 3 3 3 3 3 3 3
1 1 1 1 0 0 0 2 3 3 3 2 1 0 0 0 0 0 0 0 0 1 2 2 2 3 3 2 1 1 2 3 4 3 3 3 3 2 2 2 3 3 3
0 0 0 0 0 0 0 1 2 3 3 2 1 0 0 0 0 0 0 0 0 1 2 3 3 3 3 2 1 0 1 2 2 2 2 2 1 1 0 1 2 2 2
0 0 0 0 0 0 0 0 1 2 3 2 0 0 0 0 0 0 0 1 1 2 3 3 2 2 2 1 0 0 0 1 1 1 1 1 0 0 0 0 1 1 1
0 1 1 1 1 0 0 0 0 2 4 3 1 0 1 1 1 1 1 2 3 3 3 1 1 1 1 0 0 0 0 0 0 0 0 0 0 0 0 0 0 0 0
1 2 2 2 2 1 1 0 1 2 4 3 1 1 2 2 2 2 3 3 3 3 2 1 0 0 0 0 0 0 0 0 0 0 0 0 0 0 0 0 0 0 0
1 2 3 3 3 3 2 2 2 3 4 3 1 1 2 3 3 3 3 3 3 2 2 1 0 0 0 0 0 0 0 0 0 0 0 0 0 0 0 0 0 0 0
1 2 3 3 3 3 3 3 3 4 4 2 0 0 1 2 3 3 3 3 2 1 1 0 0 0 0 0 0 0 0 0 0 0 0 0 0 0 0 0 0 0 0
Wind_Speed
2 3 3 4 4 4 5 5 5 3 3 3 2 2 1 1 0 0 1 2 2 2 2 2 2 2 2 2 3 3 3 2 1 2 2 2 2 1 1 1 1 0 0
3 2 3 4 4 4 3 3 4 4 3 2 2 2 1 1 0 0 0 1 1 2 3 3 2 2 2 3 3 3 2 1 1 2 2 2 2 2 2 1 0 0 0
6 4 4 4 4 4 3 3 3 3 3 3 2 2 2 2 1 1 1 1 0 2 2 3 3 3 3 3 3 3 4 2 1 1 2 2 1 1 2 1 1 0 0
4 5 5 4 4 3 3 3 3 3 2 3 3 3 3 2 2 1 1 0 0 1 1 2 3 3 3 3 3 3 3 3 2 1 1 1 2 2 0 2 1 1 0
5 5 5 5 4 4 3 3 3 2 2 2 3 3 2 1 0 0 0 0 1 0 1 2 2 3 2 3 3 3 3 2 2 2 1 1 1 1 2 1 2 1 1
5 5 4 4 4 4 3 3 4 2 2 2 2 3 3 2 1 1 0 0 0 0 0 1 2 2 2 3 3 3 4 3 3 2 2 2 2 2 2 2 1 1 2
5 5 5 5 4 3 3 3 4 3 1 1 1 2 2 2 2 1 1 1 1 1 1 1 1 1 2 2 3 3 3 4 3 3 2 2 1 2 2 2 1 0 1
4 4 5 5 4 4 3 3 3 2 1 1 1 1 1 1 1 1 1 1 2 2 1 1 1 1 2 2 2 2 3 2 3 3 2 2 2 2 2 2 2 1 1
4 4 4 4 4 3 3 3 2 2 1 1 1 1 1 1 1 1 1 1 1 1 0 1 1 1 1 2 2 2 3 3 3 3 3 2 1 1 1 2 2 3 2
4 4 4 4 4 3 3 3 2 2 2 1 1 1 0 1 1 1 1 0 1 1 1 1 1 1 1 2 2 2 2 3 2 2 3 2 2 1 1 2 2 2 2
4 4 3 3 3 2 2 2 1 1 1 1 1 1 0 0 0 0 1 1 1 1 1 2 2 2 2 2 2 2 2 3 3 3 3 3 2 2 2 2 2 2 2
3 3 3 2 2 2 2 2 2 1 1 1 1 1 1 0 0 1 1 1 1 1 2 2 2 2 3 3 3 3 3 3 3 3 3 3 2 2 2 2 2 2 2
2 3 3 2 2 1 2 2 2 2 1 1 1 0 1 1 2 2 2 1 2 2 2 2 3 3 3 3 3 3 3 3 3 3 4 3 3 3 2 3 2 2 2
3 2 2 1 1 1 1 1 2 2 1 1 1 2 2 2 3 2 2 2 2 2 2 2 3 3 3 3 3 3 3 3 3 3 3 3 4 4 4 3 3 2 2
3 3 2 2 1 1 1 1 2 2 2 2 2 3 3 3 2 2 2 2 2 3 2 2 3 3 3 3 3 3 3 3 3 2 3 3 3 4 4 3 3 3 2
3 3 3 2 2 2 2 1 1 2 2 2 3 3 3 3 3 3 3 2 3 3 2 2 3 3 3 3 5 4 3 3 3 3 2 3 3 3 4 4 4 5 4
3 4 4 4 3 3 3 2 2 2 2 3 3 3 3 3 3 4 3 3 3 3 3 3 3 4 4 5 5 6 4 4 3 3 3 2 2 2 3 3 3 3 4
4 4 3 3 2 2 2 1 1 1 2 3 3 3 3 3 3 3 3 3 3 3 3 3 3 3 4 5 6 6 5 4 4 4 4 4 3 3 3 2 2 3 3
3 3 3 3 2 2 2 1 1 1 2 2 3 3 3 3 3 3 3 3 2 3 3 3 3 3 4 4 6 6 4 3 4 4 4 4 4 4 4 3 3 3 3
2 2 2 2 2 2 1 2 1 2 3 3 3 3 3 3 3 3 3 2 2 3 3 3 3 3 4 4 5 6 4 4 3 3 3 5 5 5 5 4 4 4 4
1 2 2 1 1 1 1 1 2 3 4 3 2 2 2 3 3 2 2 2 2 2 2 3 3 3 4 4 5 6 4 4 4 3 3 3 5 5 6 5 5 6 4
1 1 1 0 1 1 2 2 3 4 2 2 1 2 2 2 1 1 1 1 1 2 2 2 2 2 3 3 4 6 7 5 4 4 3 3 5 6 6 5 5 6 4
1 1 1 1 1 1 2 3 4 3 2 1 2 2 2 1 1 1 1 1 1 1 1 2 2 2 2 2 4 5 7 7 5 4 4 5 5 5 4 6 6 5 3
1 1 1 1 2 3 3 4 3 2 2 2 2 2 1 1 1 1 1 1 1 1 2 2 2 2 2 2 2 2 3 4 4 3 3 4 4 4 4 3 3 3 4
1 2 2 3 3 3 3 3 2 2 2 2 2 1 1 1 1 1 1 2 2 2 2 3 3 3 3 4 5 4 3 4 4 3 2 1 1 2 2 2 3 3 3
2 2 2 2 3 2 3 3 2 2 2 2 2 1 1 1 1 1 2 2 2 2 2 3 3 3 4 4 3 4 5 4 5 4 2 2 3 3 3 3 3 3 4
Wind_Direction
142 136 153 158 145 143 146 149 146 140 131 136 141 146 166 177 193 203 174 163 160 156 152 145 140 144 147 148 138 124 108 86 92 90 58 29 35 50 44 57 84 73 201
112 122 131 139 143 147 157 150 149 146 141 145 153 154 141 143 172 351 33 101 147 165 166 159 157 158 147 134 134 127 119 108 95 111 100 39 5 8 25 43 91 260 248
161 154 144 151 139 138 163 165 150 141 135 125 105 88 73 53 34 10 338 325 160 169 173 169 163 161 157 159 157 147 141 145 120 98 129 136 195 316 347 5 6 324 236
163 161 155 149 144 142 130 126 131 135 138 138 138 135 140 162 206 223 236 310 22 159 168 169 167 162 160 161 167 155 148 145 150 133 75 120 146 147 330 333 344 338 274
164 157 152 145 130 120 117 113 102 92 111 137 146 139 141 170 187 98 60 359 345 331 177 170 164 166 166 172 162 152 148 150 156 153 138 115 82 116 147 259 317 329 305
146 133 121 113 110 106 107 112 109 88 79 120 144 150 155 151 115 88 13 289 311 308 259 172 162 172 175 183 175 167 164 166 161 152 143 147 154 172 162 183 233 285 307
147 142 136 132 136 134 132 131 126 115 105 112 150 165 163 162 174 193 211 233 250 252 253 197 180 177 182 186 175 167 175 174 168 172 177 172 179 167 162 158 173 233 319
150 151 155 152 156 155 145 138 132 134 133 127 138 162 157 163 186 203 202 221 238 241 230 192 190 177 176 184 170 170 183 173 176 180 178 180 190 176 168 164 158 161 305
156 161 159 156 158 161 170 160 160 159 165 151 123 98 133 156 176 186 196 226 255 250 210 188 191 199 187 189 175 176 177 172 180 180 179 186 192 178 183 168 166 168 207
155 158 162 177 180 175 167 147 161 175 183 173 173 168 173 175 172 137 147 188 232 236 191 178 194 223 213 198 185 185 175 167 185 182 172 181 191 179 172 169 167 173 186
174 172 175 176 164 143 142 137 149 145 149 183 186 177 221 177 111 173 214 215 224 214 213 217 207 215 220 211 197 201 185 177 187 189 182 195 186 180 180 176 172 180 183
173 162 153 140 137 151 146 138 153 162 179 191 194 208 248 254 243 260 255 225 223 230 223 216 215 223 217 207 200 202 199 192 199 200 188 202 190 183 185 183 192 202 200
163 144 140 148 159 161 156 153 170 189 201 181 189 257 277 258 249 250 256 249 235 230 221 213 222 229 219 210 205 200 202 199 202 201 197 203 188 195 195 191 197 203 198
177 166 161 166 159 153 175 188 204 197 197 194 211 238 250 247 249 244 238 241 242 239 232 221 223 224 219 214 207 199 204 198 203 206 203 203 199 202 201 200 199 189 181
176 181 190 191 169 171 206 213 227 218 202 208 225 239 246 246 249 253 247 241 241 242 240 231 233 226 216 211 197 197 202 197 204 214 219 221 216 204 201 200 193 185 187
205 196 191 186 196 202 208 209 231 242 215 222 240 247 242 241 246 248 251 246 244 243 236 229 228 228 229 212 198 194 195 194 198 218 233 235 226 216 206 203 195 189 192
211 204 201 195 201 202 197 202 213 229 226 235 247 249 244 247 251 251 248 244 239 233 237 235 229 234 237 218 206 202 194 198 206 216 226 238 232 217 213 212 213 213 213
212 212 203 199 201 189 183 190 197 236 248 252 255 256 253 258 258 250 250 248 236 231 235 235 227 233 237 214 205 201 199 204 218 222 220 221 233 220 200 198 211 229 230
219 212 199 188 188 195 179 150 197 251 256 265 269 264 255 254 255 254 254 248 234 236 235 233 226 230 249 227 211 199 195 208 229 234 226 218 226 227 201 193 217 239 251
195 185 174 158 174 195 155 153 207 243 255 260 267 268 259 247 247 252 257 254 229 232 236 243 235 227 241 236 214 195 189 205 226 235 232 222 222 222 207 206 211 235 245
170 137 136 155 184 171 160 198 226 248 258 265 271 272 264 257 248 253 258 248 235 235 238 249 253 238 239 239 220 201 195 205 216 225 230 229 220 222 218 216 218 228 233
123 118 126 179 169 156 174 237 256 264 275 275 279 283 274 272 274 259 264 249 221 224 244 256 273 261 245 235 224 209 208 205 207 222 228 228 220 224 223 221 227 228 225
177 171 173 211 251 211 196 228 257 269 276 284 280 280 283 288 295 257 255 267 232 225 235 236 255 270 264 250 229 215 213 215 216 226 226 232 227 224 228 232 233 223 214
205 216 194 217 247 249 238 236 251 249 234 250 269 272 270 302 336 319 260 244 233 230 235 242 247 258 263 258 241 221 215 214 220 229 227 227 222 220 230 236 229 220 216
221 203 213 227 245 256 261 255 235 214 223 246 260 262 252 257 291 295 265 243 250 233 230 243 234 232 248 252 236 215 212 206 205 189 192 210 228 235 236 238 235 223 216
219 212 226 237 250 254 265 265 238 200 204 238 254 252 254 250 252 275 301 298 267 291 268 264 250 247 246 257 240 229 224 206 177 165 198 221 228 233 236 236 237 228 223